Location: Baix
(44.7118°N, 4.7648°E)
Time: 07:08:29
(UTC+00:00)

Vanguard 1 - Pass Details

Date: 02 December 2020
Orbit: 648 x 3834 km, 34.3° (Epoch: 21 January)

Event Time Altitude Azimuth Distance (km) Brightness Sun altitude
Rises 02:42:43 0° 204° (SSW) 3,004 - -44.7°
Reaches altitude 10° 02:45:53 10° 178° (S) 2,263 - -44.2°
Maximum altitude 02:48:36 14° 145° (SE) 2,188 - -43.7°
Exits shadow 02:50:23 13° 126° (SE) 2,458 12.4 -43.4°
Drops below altitude 10° 02:51:50 10° 114° (ESE) 2,805 12.8 -43.2°
Sets 02:56:39 0° 92° (E) 4,330 14.2 -42.3°
